When you browse on this site, cookies collect data to enhance your experience and personalize the content and advertising you see.
Visit our Privacy Policy to learn more. By continuing to use the site, you agree to this use of cookies and data.
  • In Österreich
  • Länderverzeichnis
  • Für 7 Tage
  • Wassertemperatur
  • Wetterkarte
  • News
  • Widgets
  • user-avatar
    Anmelden

    Stündliche Wetter Plodorodnyy

    Heute, 30 Mai, Samstag

    Zeit Temperatur Niederschläge Wind Luftdruck Luftfeuchtigkeit
    00:00 +15°C° 0 mm 5 m/S 743 mmHg 79%
    01:00 +15°C° 0 mm 5 m/S 743 mmHg 79%
    02:00 +14°C° 0 mm 4 m/S 742 mmHg 82%
    03:00 +14°C° 0 mm 4 m/S 742 mmHg 84%
    04:00 +13°C° 0 mm 4 m/S 742 mmHg 83%
    05:00 +15°C° 0 mm 4 m/S 742 mmHg 78%
    06:00 +17°C° 0 mm 4 m/S 742 mmHg 73%
    07:00 +17°C° 0 mm 5 m/S 742 mmHg 67%
    08:00 +19°C° 0 mm 5 m/S 742 mmHg 64%
    09:00 +21°C° 0 mm 5 m/S 742 mmHg 61%
    10:00 +22°C° 0 mm 5 m/S 741 mmHg 57%
    11:00 +23°C° 0 mm 5 m/S 741 mmHg 55%
    12:00 +26°C° 0 mm 5 m/S 741 mmHg 53%
    13:00 +27°C° 0 mm 5 m/S 741 mmHg 50%
    14:00 +27°C° 0 mm 5 m/S 741 mmHg 51%
    15:00 +28°C° 0 mm 5 m/S 740 mmHg 51%
    16:00 +28°C° 0 mm 4 m/S 740 mmHg 51%
    17:00 +27°C° 0 mm 4 m/S 740 mmHg 56%
    18:00 +27°C° 0 mm 3 m/S 739 mmHg 61%
    19:00 +26°C° 0 mm 3 m/S 739 mmHg 66%
    20:00 +24°C° 0 mm 3 m/S 739 mmHg 69%
    21:00 +22°C° 0 mm 3 m/S 738 mmHg 72%
    22:00 +21°C° 0 mm 4 m/S 738 mmHg 75%
    23:00 +21°C° 0 mm 4 m/S 737 mmHg 73%

    Morgen, 31 Mai, Sonntag

    Zeit Temperatur Niederschläge Wind Luftdruck Luftfeuchtigkeit
    00:00 +21°C° 0 mm 5 m/S 737 mmHg 72%
    01:00 +21°C° 0 mm 5 m/S 736 mmHg 70%
    02:00 +20°C° 0 mm 5 m/S 735 mmHg 71%
    03:00 +20°C° 0 mm 6 m/S 735 mmHg 72%
    04:00 +19°C° 0 mm 6 m/S 735 mmHg 73%
    05:00 +20°C° 0 mm 6 m/S 734 mmHg 74%
    06:00 +21°C° 0 mm 6 m/S 734 mmHg 75%
    07:00 +21°C° 0 mm 6 m/S 733 mmHg 76%
    08:00 +22°C° 0 mm 7 m/S 734 mmHg 76%
    09:00 +22°C° 0 mm 7 m/S 734 mmHg 77%
    10:00 +23°C° 0 mm 8 m/S 734 mmHg 77%
    11:00 +23°C° 0 mm 8 m/S 734 mmHg 76%
    12:00 +23°C° 0 mm 8 m/S 735 mmHg 75%
    13:00 +23°C° 0 mm 9 m/S 735 mmHg 74%
    14:00 +23°C° 0 mm 9 m/S 735 mmHg 68%
    15:00 +24°C° 0 mm 9 m/S 736 mmHg 62%
    16:00 +26°C° 0 mm 8 m/S 736 mmHg 56%
    17:00 +24°C° 0 mm 7 m/S 736 mmHg 59%
    18:00 +23°C° 0 mm 6 m/S 736 mmHg 62%
    19:00 +22°C° 0 mm 5 m/S 737 mmHg 64%
    20:00 +20°C° 0 mm 5 m/S 737 mmHg 66%
    21:00 +19°C° 0 mm 5 m/S 737 mmHg 68%
    22:00 +16°C° 0 mm 5 m/S 737 mmHg 70%
    23:00 +17°C° 0 mm 4 m/S 737 mmHg 73%

    übermorgen, 1 Juni, Montag

    Zeit Temperatur Niederschläge Wind Luftdruck Luftfeuchtigkeit
    00:00 +15°C° 0 mm 4 m/S 737 mmHg 75%
    01:00 +14°C° 0 mm 4 m/S 737 mmHg 78%
    02:00 +14°C° 0 mm 4 m/S 738 mmHg 80%
    03:00 +13°C° 0 mm 4 m/S 738 mmHg 83%
    04:00 +13°C° 0 mm 4 m/S 738 mmHg 85%
    05:00 +14°C° 0 mm 4 m/S 738 mmHg 82%
    06:00 +15°C° 0 mm 4 m/S 738 mmHg 78%
    07:00 +16°C° 0 mm 5 m/S 738 mmHg 74%
    08:00 +17°C° 0 mm 5 m/S 739 mmHg 68%
    09:00 +20°C° 0 mm 6 m/S 739 mmHg 62%
    10:00 +21°C° 0 mm 6 m/S 739 mmHg 56%
    11:00 +22°C° 0 mm 6 m/S 739 mmHg 53%
    12:00 +23°C° 0 mm 7 m/S 739 mmHg 51%
    13:00 +23°C° 0 mm 7 m/S 739 mmHg 48%
    14:00 +24°C° 0 mm 7 m/S 739 mmHg 48%
    15:00 +24°C° 0 mm 7 m/S 739 mmHg 47%
    16:00 +24°C° 0 mm 7 m/S 739 mmHg 47%
    17:00 +23°C° 0 mm 6 m/S 739 mmHg 52%
    18:00 +22°C° 0 mm 5 m/S 739 mmHg 57%
    19:00 +21°C° 0 mm 3 m/S 739 mmHg 62%
    20:00 +20°C° 0 mm 3 m/S 739 mmHg 66%
    21:00 +18°C° 0 mm 2 m/S 739 mmHg 70%
    22:00 +17°C° 0 mm 2 m/S 739 mmHg 74%
    23:00 +16°C° 0 mm 2 m/S 740 mmHg 76%

    2 Juni, Dienstag

    Zeit Temperatur Niederschläge Wind Luftdruck Luftfeuchtigkeit
    00:00 +16°C° 0 mm 1 m/S 740 mmHg 78%
    01:00 +15°C° 0 mm 1 m/S 740 mmHg 79%
    02:00 +15°C° 0 mm 1 m/S 740 mmHg 81%
    03:00 +15°C° 0 mm 1 m/S 740 mmHg 82%
    04:00 +14°C° 0 mm 1 m/S 740 mmHg 83%
    05:00 +16°C° 0 mm 1 m/S 740 mmHg 78%
    06:00 +18°C° 0 mm 1 m/S 740 mmHg 73%
    07:00 +20°C° 0 mm 1 m/S 741 mmHg 68%
    08:00 +20°C° 0 mm 2 m/S 741 mmHg 63%
    09:00 +21°C° 0 mm 2 m/S 741 mmHg 57%
    10:00 +23°C° 0 mm 2 m/S 741 mmHg 52%
    11:00 +24°C° 0 mm 2 m/S 741 mmHg 49%
    12:00 +25°C° 0 mm 2 m/S 741 mmHg 45%
    13:00 +26°C° 0 mm 2 m/S 741 mmHg 42%
    14:00 +26°C° 0 mm 2 m/S 741 mmHg 41%
    15:00 +26°C° 0 mm 2 m/S 741 mmHg 40%
    16:00 +26°C° 0 mm 2 m/S 741 mmHg 39%
    17:00 +25°C° 0 mm 2 m/S 741 mmHg 46%
    18:00 +24°C° 0 mm 3 m/S 741 mmHg 53%
    19:00 +22°C° 0 mm 3 m/S 741 mmHg 60%
    20:00 +20°C° 0 mm 4 m/S 741 mmHg 67%
    21:00 +19°C° 0 mm 4 m/S 741 mmHg 73%
    22:00 +16°C° 0 mm 5 m/S 741 mmHg 79%
    23:00 +16°C° 0 mm 5 m/S 741 mmHg 80%

    3 Juni, Mittwoch

    Zeit Temperatur Niederschläge Wind Luftdruck Luftfeuchtigkeit
    00:00 +15°C° 0 mm 5 m/S 741 mmHg 82%
    01:00 +14°C° 0 mm 5 m/S 740 mmHg 83%
    02:00 +15°C° 0 mm 5 m/S 740 mmHg 81%
    03:00 +15°C° 0 mm 5 m/S 740 mmHg 78%
    04:00 +15°C° 0 mm 5 m/S 740 mmHg 76%
    05:00 +15°C° 0 mm 4 m/S 740 mmHg 76%
    06:00 +15°C° 0 mm 4 m/S 740 mmHg 76%
    07:00 +15°C° 0 mm 4 m/S 740 mmHg 76%
    08:00 +18°C° 0 mm 4 m/S 740 mmHg 72%
    09:00 +19°C° 0 mm 5 m/S 740 mmHg 69%
    10:00 +20°C° 0 mm 6 m/S 740 mmHg 66%
    11:00 +21°C° 0 mm 5 m/S 740 mmHg 62%
    12:00 +23°C° 0 mm 5 m/S 740 mmHg 59%
    13:00 +25°C° 0 mm 5 m/S 740 mmHg 55%
    14:00 +25°C° 0.1 mm 5 m/S 740 mmHg 56%
    15:00 +24°C° 0.1 mm 6 m/S 739 mmHg 56%
    16:00 +24°C° 0.1 mm 6 m/S 739 mmHg 57%
    17:00 +23°C° 0.4 mm 6 m/S 739 mmHg 63%
    18:00 +21°C° 0.4 mm 7 m/S 739 mmHg 69%
    19:00 +20°C° 0.4 mm 7 m/S 739 mmHg 75%
    20:00 +17°C° 0.3 mm 7 m/S 739 mmHg 77%
    21:00 +16°C° 0.3 mm 7 m/S 739 mmHg 80%
    22:00 +15°C° 0.3 mm 7 m/S 738 mmHg 82%
    23:00 +15°C° 0.8 mm 6 m/S 738 mmHg 85%

    4 Juni, Donnerstag

    Zeit Temperatur Niederschläge Wind Luftdruck Luftfeuchtigkeit
    00:00 +15°C° 0.8 mm 6 m/S 738 mmHg 88%
    01:00 +15°C° 0.8 mm 5 m/S 738 mmHg 91%
    02:00 +14°C° 0.3 mm 5 m/S 738 mmHg 91%
    03:00 +14°C° 0.3 mm 5 m/S 738 mmHg 90%
    04:00 +14°C° 0.3 mm 5 m/S 738 mmHg 90%
    05:00 +14°C° 0 mm 6 m/S 738 mmHg 87%
    06:00 +15°C° 0 mm 6 m/S 738 mmHg 84%
    07:00 +16°C° 0 mm 6 m/S 738 mmHg 81%
    08:00 +19°C° 0 mm 6 m/S 738 mmHg 77%
    09:00 +20°C° 0 mm 5 m/S 738 mmHg 72%
    10:00 +22°C° 0 mm 5 m/S 738 mmHg 68%
    11:00 +23°C° 0.1 mm 5 m/S 738 mmHg 66%
    12:00 +25°C° 0.1 mm 5 m/S 738 mmHg 64%
    13:00 +26°C° 0.1 mm 5 m/S 738 mmHg 62%
    14:00 +26°C° 0.4 mm 6 m/S 738 mmHg 62%
    15:00 +26°C° 0.4 mm 6 m/S 738 mmHg 62%
    16:00 +26°C° 0.4 mm 6 m/S 738 mmHg 63%
    17:00 +24°C° 0 mm 6 m/S 738 mmHg 65%
    18:00 +23°C° 0 mm 6 m/S 738 mmHg 67%
    19:00 +22°C° 0 mm 6 m/S 738 mmHg 69%
    20:00 +20°C° 0 mm 6 m/S 737 mmHg 70%
    21:00 +19°C° 0 mm 6 m/S 737 mmHg 71%
    22:00 +16°C° 0 mm 7 m/S 737 mmHg 71%
    23:00 +16°C° 0 mm 7 m/S 737 mmHg 70%
    Mehr zeigen